KJ6HT Weather Reports


Display with metric or nautical units.
time (UTC)temp
F
wind
direction
speed
MPH
gust
MPH
rain 1hr
in
rain 24hr
in
rain mn
in
humidity
%
barometer
mb
20260506113016 50 321 0.0 0.0 0.00 0.13 0.00 90 1016.7
20260506111515 51 321 0.0 0.0 0.00 0.13 0.00 91 1016.7
20260506110015 51 320 0.0 0.0 0.00 0.14 0.00 91 1016.6
20260506104532 51 320 0.0 0.0 0.00 0.14 0.00 91 1016.6
20260506103011 50 321 0.0 0.0 0.00 0.14 0.00 89 1016.6
20260506101509 51 320 0.0 0.0 0.00 0.14 0.00 88 1016.6
20260506100005 52 321 0.0 0.0 0.00 0.14 0.00 88 1016.6
20260506094503 52 320 0.0 0.0 0.00 0.14 0.00 88 1016.6
20260506093101 53 321 0.0 1.0 0.00 0.14 0.00 86 1016.6
20260506091602 53 320 0.0 1.0 0.00 0.14 0.00 86 1016.6
20260506090057 53 321 0.0 1.0 0.00 0.14 0.00 85 1016.6
20260506084555 53 321 0.0 1.0 0.00 0.14 0.00 85 1016.7
20260506083054 54 321 0.0 1.0 0.00 0.14 0.00 84 1016.9
20260506081558 54 320 0.0 1.0 0.00 0.14 0.00 83 1016.9
20260506073049 54 321 0.0 0.0 0.00 0.14 0.00 83 1016.9
20260506071546 54 321 0.0 0.0 0.00 0.14 0.00 82 1016.9
20260506061538 57 321 0.0 2.0 0.00 0.14 0.14 75 1016.3
20260506044533 59 191 2.0 5.0 0.00 0.14 0.14 66 1015.4
20260506043027 60 248 2.0 7.0 0.00 0.14 0.14 66 1015.4
20260506041526 59 233 1.0 4.0 0.00 0.14 0.14 66 1015.2
20260506040039 60 218 0.0 6.0 0.00 0.14 0.14 65 1014.9
20260506034521 60 257 3.0 7.0 0.00 0.14 0.14 64 1014.7
20260506033025 61 224 2.0 7.0 0.00 0.14 0.14 63 1014.4
20260506031517 61 266 6.0 10.0 0.00 0.14 0.14 61 1014.3
20260506030019 61 240 5.0 10.0 0.00 0.14 0.14 60 1014.1
20260506024526 62 270 3.0 11.0 0.00 0.14 0.14 58 1013.9
20260506023013 62 226 3.0 10.0 0.00 0.14 0.14 56 1013.5
20260506021521 63 217 5.0 11.0 0.00 0.14 0.14 54 1013.4
20260506020013 63 226 5.0 11.0 0.00 0.14 0.14 53 1013.3
20260506014521 63 248 3.0 10.0 0.00 0.14 0.14 53 1013.1
20260506013012 64 332 5.0 13.0 0.00 0.14 0.14 53 1012.9
20260506011521 64 215 2.0 10.0 0.00 0.14 0.14 52 1012.9
20260506010013 65 268 4.0 10.0 0.00 0.14 0.14 51 1012.8
20260506004510 65 127 5.0 12.0 0.00 0.14 0.14 49 1012.8
20260506003009 66 231 5.0 16.0 0.00 0.14 0.14 49 1012.8
20260506001513 65 269 4.0 10.0 0.00 0.14 0.14 48 1012.7
20260506000008 67 205 6.0 14.0 0.00 0.14 0.14 47 1012.5
20260505234512 66 249 5.0 13.0 0.00 0.14 0.14 48 1012.6
20260505233007 66 300 3.0 13.0 0.00 0.14 0.14 48 1012.5
20260505231505 67 222 4.0 13.0 0.00 0.14 0.14 47 1012.6
20260505230004 67 221 4.0 13.0 0.00 0.14 0.14 47 1012.5
20260505224503 67 240 4.0 13.0 0.00 0.14 0.14 47 1012.7
20260505223002 68 256 3.0 11.0 0.00 0.14 0.14 48 1012.7
20260505221502 67 205 5.0 11.0 0.00 0.14 0.14 47 1012.8
20260505220100 67 176 3.0 15.0 0.00 0.14 0.14 49 1012.8
20260505214604 68 288 6.0 15.0 0.00 0.14 0.14 48 1013.0
20260505213057 67 304 2.0 16.0 0.00 0.14 0.14 49 1013.1
20260505211625 69 228 4.0 12.0 0.00 0.14 0.14 49 1013.2
20260505210056 69 293 5.0 12.0 0.00 0.14 0.14 48 1013.3
20260505204552 68 229 4.0 10.0 0.00 0.14 0.14 49 1013.2
20260505203113 68 290 5.0 13.0 0.00 0.14 0.14 49 1013.2
20260505201551 68 226 3.0 7.0 0.00 0.14 0.14 48 1013.3
20260505200047 67 217 3.0 11.0 0.00 0.14 0.14 49 1013.5
20260505194545 68 318 0.0 6.0 0.00 0.14 0.14 48 1013.5
20260505193042 67 158 4.0 9.0 0.00 0.14 0.14 48 1013.7
20260505191546 67 351 3.0 9.0 0.00 0.14 0.14 47 1013.8
20260505190043 67 267 2.0 10.0 0.00 0.14 0.14 49 1013.8
20260505184546 66 257 5.0 10.0 0.00 0.14 0.14 52 1014.0
20260505183039 65 263 4.0 9.0 0.00 0.14 0.14 56 1014.0
20260505181531 64 266 2.0 11.0 0.00 0.14 0.14 58 1014.1
20260505180029 64 239 3.0 8.0 0.00 0.14 0.14 60 1014.0
20260505174526 63 226 2.0 10.0 0.00 0.14 0.14 62 1013.9
20260505173024 62 284 1.0 7.0 0.00 0.14 0.14 65 1013.7
20260505171522 62 308 3.0 10.0 0.00 0.14 0.14 66 1013.7
20260505170023 61 255 2.0 6.0 0.00 0.14 0.14 68 1013.6
20260505164518 61 277 1.0 9.0 0.00 0.14 0.14 72 1013.5
20260505163013 60 252 3.0 7.0 0.00 0.14 0.14 76 1013.5
20260505161510 58 21 3.0 8.0 0.00 0.14 0.14 78 1013.4
20260505153007 57 195 3.0 10.0 0.00 0.14 0.14 83 1013.1
20260505151503 57 237 3.0 9.0 0.00 0.14 0.14 86 1013.0
20260505140118 54 219 0.0 2.0 0.00 0.14 0.14 93 1012.6
20260505124559 53 260 0.0 2.0 0.00 0.14 0.14 93 1012.3
20260505123056 53 252 0.0 5.0 0.09 0.14 0.14 93 1012.3
20260505121553 53 293 0.0 4.0 0.11 0.14 0.14 93 1012.3
20260505120106 54 277 0.0 3.0 0.13 0.14 0.14 93 1012.3
20260505114552 54 295 1.0 5.0 0.13 0.14 0.14 93 1012.3